Starlink 5764

operational
NORAD ID: 55602 Int'l Des: 2023-020 Owner: SPXS Country: US Constellation: starlink
LEOCIRCULAR

Über Starlink 5764

Beschreibung wird geladen...

Live-Position

3D-Globus wird geladen...

Nächste Überflüge

Höhenverlauf

Altitude vs Time

uPlot chart will show altitude changes over time

Zweizeiliger Elementsatz

1 55602U 23020AK 25341.14665029 .00000694 00000-0 66453-4 0 9990
2 55602 43.0027 134.9112 0001233 271.1808 88.8893 15.02533130155146
Epoch: 7. Dez. 2025 • Age: 17 hours

Aktueller Status

Höhe 562.8 km
Geschwindigkeit 7.58 km/s
Subsatellitenpunkt -19.32°S, 78.01°E
Startdatum 12. Feb. 2023
Alter 2.8 years
Typ internet

Technische Details

Klassifizierung Payload
Masse 305.00 kg
Trockenmasse 290.00 kg
Gesamtmasse 305.00 kg
Länge 0.20 m
Durchmesser 2.80 m
Spannweite 9.00 m
Form Box + pan
Hersteller SPXS
Bus-Typ Starlink
Phasenstatus In Orbit
Besitzer/Staat SPXS/US

Große Konstellationen

Loading constellations...